Weather in Rana

Norway     66°19′32″N   14°10′28″E
temp.,
°C
wind,
m/s
gust,
m/s
humid.,
%
clouds,
%
prec.,
mm/h
press.,
hPa
HPBL,
m
12 april, mon
mon1223:00−4ssw219797 0.3 102315
02:00−5ssw119792 0.7 102411
05:00−6s229592 0.1 102416
08:00−4se119398 0.4 1024122
11:00−2ne128863 0.0 1023324
14:00−1ne238097 0.1 1022562
17:00−1ene1369100 0.0 1021677
20:00−6ese3286100 0.0 102114
13 april, tue
tue1323:00−7e3389100 0.0 102230
02:00−8e3389100 0.0 102232
05:00−9e339083 0.0 102128
08:00−7e338980 0.0 102094
11:00−4ne227899 0.0 1018334
14:00−2ne2364100 0.0 1017727
17:00−2nnw1258100 0.0 10161099
20:00−5wnw117924 0.0 101711
14 april, wed
wed1423:00−7ssw1187100 0.0 101916
02:00−9ssw119286 0.0 102112
05:00−8s119795 0.3 102115
08:00−5nne009486 0.5 102293
11:00−3s118558 0.1 1023248
14:00−1wsw239792 0.4 1023388
17:000wsw369197 0.4 1023528
20:00−2sw229494 0.8 102416
15 april, thu
thu1523:00−2sw239796 0.4 102662
02:00−3ssw329793 0.9 102645
05:00−1sw3498100 1.9 1026125
08:00+1wsw51398100 3.6 1026744
11:00+1wsw612100100 1.3 1029670
14:00+2wsw5997100 1.6 1030421
17:00+2wsw469655 0.1 1032206
20:000wsw229368 0.2 103414
16 april, fri
fri1623:00−3s219750 0.0 103610
02:00−1sse119183 0.0 103710
05:000ese118677 0.0 103814
08:00−1se22868 0.0 103958
11:00+1ene11915 0.0 1039176
14:00+2ese119039 0.0 1039143
17:00+1se119172 0.0 1039117
20:00−1sse228524 0.0 103912